PBO Station Position Time Series. Reference Frame : NAM14
Format Version,1.1.1
4-character ID,AL90
Station name,ALDOT_9_DIV_OFF
Begin Date, 2007-02-10
End Date, 2023-06-26
Release Date, 2023-06-27
Reference position, 30.6908305096 North Latitude, -88.0317117382 East Longitude, -17.39090 meters elevation,
Date, North (mm), East (mm), Vertical (mm), North Std. Deviation (mm), East Std. Deviation (mm),              Vertical Std. Deviation (mm), Quality,
2007-02-10,0.00, 0.00, 0.00, 1.96, 1.89, 8.92, repro,
2007-02-11,1.18, -0.02, 4.65, 1.96, 1.88, 8.71, repro,
2007-02-12,0.29, 0.04, 3.04, 1.93, 1.79, 8.71, repro,
2007-02-13,1.39, 1.42, 3.31, 2.06, 1.95, 9.22, repro,
2007-02-14,-0.64, -1.60, 3.34, 1.91, 1.78, 8.39, repro,
2007-02-15,0.90, -0.99, 5.39, 1.96, 1.87, 8.60, repro,
2007-02-16,2.04, -0.75, 2.66, 1.99, 1.89, 8.58, repro,
2007-02-17,1.43, -0.46, 5.74, 2.06, 1.99, 9.13, repro,
2007-02-18,1.60, -1.42, 3.93, 1.97, 1.84, 8.63, repro,
2007-02-19,2.06, -0.67, 4.52, 1.96, 1.81, 8.54, repro,
2007-02-20,0.58, -0.98, 6.52, 1.91, 1.77, 8.44, repro,
2007-02-21,0.82, -0.12, 20.26, 1.85, 1.70, 8.04, repro,
2007-02-22,-1.18, 0.12, 4.80, 1.81, 1.66, 7.83, repro,
2007-02-23,0.21, -0.12, 4.37, 1.86, 1.70, 7.99, repro,
2007-02-24,-1.90, 1.45, 9.25, 1.87, 1.70, 8.04, repro,
2007-02-25,-1.30, -0.69, 17.42, 2.03, 1.86, 8.53, repro,
2007-02-26,-1.14, 1.05, 8.82, 1.89, 1.75, 8.18, repro,
2007-02-27,-0.97, -0.37, 7.82, 1.90, 1.77, 8.25, repro,
2007-02-28,-0.38, 0.90, 8.59, 1.86, 1.71, 8.16, repro,
2007-03-01,-0.95, 0.58, 7.66, 2.26, 2.27, 9.76, repro,
2007-03-02,-1.76, 1.39, 17.08, 1.90, 1.74, 8.06, repro,
2007-03-03,-0.56, 0.77, 2.92, 1.87, 1.72, 7.91, repro,
2007-03-04,0.65, 1.18, -0.36, 1.84, 1.71, 7.87, repro,
2007-03-05,1.18, 0.39, -0.70, 1.87, 1.73, 7.88, repro,
2007-03-06,1.21, 1.75, -0.25, 1.89, 1.73, 8.06, repro,
2007-03-07,0.07, 0.60, -1.17, 1.86, 1.69, 7.94, repro,
2007-03-08,0.89, 0.75, 8.01, 1.90, 1.78, 8.15, repro,
2007-03-09,0.67, 2.38, 6.98, 1.88, 1.74, 8.10, repro,
2007-03-10,0.90, 1.67, 0.09, 1.90, 1.80, 8.19, repro,
2007-03-11,-0.78, 1.81, 0.82, 1.88, 1.73, 8.01, repro,
2007-03-12,0.83, 1.69, 5.16, 1.94, 1.77, 8.18, repro,
2007-03-13,-0.22, 0.67, 2.52, 1.92, 1.74, 8.09, repro,
2007-03-14,0.15, 2.29, 0.70, 1.88, 1.75, 8.16, repro,
2007-03-15,-4.21, 2.02, 15.37, 1.83, 1.71, 7.97, repro,
2007-03-16,-1.91, 1.85, 3.87, 1.86, 1.73, 8.14, repro,
2007-03-17,-0.21, 1.11, 2.88, 1.79, 1.65, 7.79, repro,
2007-03-18,1.25, 1.39, 3.96, 1.88, 1.72, 8.02, repro,
2007-03-19,-0.42, 1.26, 5.14, 1.83, 1.74, 7.98, repro,
2007-03-20,1.27, -0.12, -9.58, 1.85, 1.75, 8.10, repro,
2007-03-21,2.36, 0.54, 5.49, 2.05, 1.92, 8.70, repro,
2007-03-22,2.03, 1.66, 2.85, 1.92, 1.77, 8.34, repro,
2007-03-23,-0.41, 1.54, 8.50, 1.83, 1.68, 7.90, repro,
2007-03-24,0.25, 1.16, 8.68, 1.84, 1.72, 8.06, repro,
2007-03-25,-0.38, 1.47, 8.16, 1.79, 1.67, 7.82, repro,
2007-03-26,-0.25, 2.40, 11.17, 1.83, 1.71, 7.99, repro,
2007-03-27,-2.07, 2.73, 11.39, 1.94, 1.81, 8.17, repro,
2007-03-28,-0.59, 3.74, 8.67, 1.91, 1.73, 8.28, repro,
2007-03-29,0.05, 2.29, 8.07, 1.88, 1.72, 8.07, repro,
2007-03-30,-2.27, 2.75, -0.10, 1.87, 1.75, 8.20, repro,
2007-03-31,-1.21, 3.60, 5.90, 1.86, 1.69, 8.25, repro,
2007-04-01,-2.56, 3.91, 12.25, 1.86, 1.72, 8.23, repro,
2007-04-02,-1.11, -0.00, 14.44, 1.94, 1.71, 8.68, repro,
2007-04-03,-1.90, 3.01, 15.65, 1.89, 1.74, 8.30, repro,
2007-04-04,-2.91, 3.57, -0.42, 1.94, 1.81, 8.62, repro,
2007-04-05,-0.50, 1.17, 1.28, 2.21, 1.94, 9.29, repro,
2007-04-06,-0.45, 2.29, 0.13, 2.31, 1.97, 9.49, repro,
2007-04-07,-0.69, 1.18, 4.30, 2.04, 1.84, 8.91, repro,
2007-04-08,-0.18, -0.29, 11.08, 1.95, 1.90, 8.49, repro,
2007-04-09,-1.88, 0.46, 12.04, 1.90, 1.82, 8.41, repro,
2007-04-10,0.63, 0.68, 14.05, 2.03, 1.94, 9.22, repro,
2007-04-11,-0.82, 1.51, 27.78, 1.94, 1.78, 8.54, repro,
2007-04-12,-0.40, 1.89, 16.84, 1.97, 1.85, 8.60, repro,
2007-04-13,-0.65, 1.95, 8.00, 2.14, 2.01, 9.18, repro,
2007-04-14,-1.43, 0.35, 18.32, 2.16, 1.98, 9.29, repro,
2007-04-15,-1.14, 2.02, 11.80, 1.93, 1.86, 8.40, repro,
2007-04-16,-0.59, 1.26, 8.66, 1.94, 1.85, 8.56, repro,
2007-04-17,-0.55, 1.66, 9.71, 1.91, 1.76, 8.48, repro,
2007-04-18,-2.36, 1.39, 19.96, 1.85, 1.71, 8.14, repro,
2007-04-19,-1.80, 2.88, 19.48, 1.80, 1.68, 7.82, repro,
2007-04-20,-1.62, 2.58, 10.07, 1.80, 1.66, 7.81, repro,
2007-04-21,-1.71, 1.66, 11.18, 1.84, 1.67, 8.03, repro,
2007-04-22,0.15, 2.48, 6.77, 1.87, 1.72, 8.17, repro,
2007-04-23,-0.75, 2.66, 1.65, 1.85, 1.73, 8.05, repro,
2007-04-24,-1.40, 2.12, 6.62, 1.82, 1.71, 7.93, repro,
2007-04-25,-2.31, 3.98, 7.50, 1.83, 1.70, 7.98, repro,
2007-04-26,-2.52, 5.06, 20.27, 2.03, 1.95, 9.08, repro,
2007-04-27,-2.35, 4.08, 9.44, 1.99, 1.91, 8.87, repro,
2007-04-28,-2.20, 3.93, 11.53, 2.02, 1.90, 8.90, repro,
2007-04-29,-2.54, 2.33, 5.63, 1.93, 1.83, 8.37, repro,
2007-04-30,-1.57, 3.54, 12.13, 1.88, 1.81, 8.27, repro,
2007-05-01,-2.59, 2.40, 10.80, 1.82, 1.72, 8.05, repro,
2007-05-02,-2.84, 4.41, 5.08, 2.00, 1.91, 8.68, repro,
2007-05-03,-3.42, 4.33, 14.97, 2.03, 2.00, 8.87, repro,
2007-05-04,-1.07, 3.97, 17.62, 1.96, 1.86, 8.59, repro,
2007-05-05,-1.99, 2.43, 14.19, 1.84, 1.72, 7.94, repro,
2007-05-06,-2.87, 3.90, 18.71, 1.82, 1.69, 7.94, repro,
2007-05-07,-1.83, 2.81, 7.32, 1.85, 1.73, 7.99, repro,
2007-05-08,-1.45, 3.55, 7.07, 1.83, 1.72, 8.00, repro,
2007-05-09,-1.94, 2.37, 15.96, 1.84, 1.72, 8.12, repro,
2007-05-10,-2.98, 4.25, 9.68, 1.89, 1.79, 8.68, repro,
2007-05-11,-3.96, 1.89, 15.26, 2.07, 2.01, 9.37, repro,
2007-05-12,-2.74, 2.14, 7.95, 1.88, 1.80, 8.13, repro,
2007-05-13,-3.90, 3.54, 32.21, 2.18, 2.19, 9.94, repro,
2007-05-14,-1.28, 4.23, 0.82, 1.81, 1.70, 7.99, repro,
2007-05-15,-1.40, 1.40, 13.02, 1.88, 1.81, 8.34, repro,
2007-05-16,-3.42, 5.43, 15.39, 1.87, 1.76, 8.15, repro,
2007-05-17,-3.38, 3.73, 14.35, 1.86, 1.78, 8.01, repro,
2007-05-18,-2.05, 3.83, 10.19, 1.90, 1.80, 8.51, repro,
2007-05-19,-1.95, 2.64, 10.58, 1.91, 1.84, 8.38, repro,
2007-05-20,-1.18, 2.30, 10.92, 1.92, 1.83, 8.35, repro,
2007-05-21,-2.80, 4.02, 10.75, 1.82, 1.72, 7.85, repro,
2007-05-22,-1.86, 3.99, 10.89, 1.81, 1.72, 8.10, repro,
2007-05-23,-1.38, 3.46, 6.90, 1.79, 1.69, 7.86, repro,
2007-05-24,-2.75, 3.49, 15.01, 1.89, 1.80, 8.38, repro,
2007-05-25,-2.25, 2.99, 10.49, 1.88, 1.76, 8.08, repro,
2007-05-26,-3.25, 2.78, 10.72, 1.88, 1.77, 8.25, repro,
2007-05-27,-2.79, 2.73, 7.79, 1.80, 1.71, 7.93, repro,
2007-05-28,-0.49, 4.01, 14.59, 1.88, 1.79, 8.19, repro,
2007-05-29,-1.83, 4.42, 11.15, 1.90, 1.76, 8.12, repro,
2007-05-30,-1.71, 2.92, 22.86, 1.94, 1.84, 8.57, repro,
2007-05-31,-1.58, 1.86, 12.93, 2.01, 1.91, 8.75, repro,
2007-06-01,-3.84, 2.42, -1.53, 1.98, 1.94, 8.76, repro,
2007-06-02,-2.76, 5.19, 5.80, 1.90, 1.81, 8.11, repro,
2007-06-03,-3.67, 3.79, 19.75, 1.85, 1.72, 8.00, repro,
2007-06-04,-4.21, 3.00, 11.20, 1.87, 1.70, 8.15, repro,
2007-06-05,-1.33, 3.95, 9.58, 1.91, 1.81, 8.32, repro,
2007-06-06,-4.11, 4.14, 18.38, 1.96, 1.83, 8.40, repro,
2007-06-07,-0.94, 2.92, 14.43, 2.06, 2.02, 8.90, repro,
2007-06-08,-1.32, 2.53, 8.97, 2.09, 2.03, 8.97, repro,
2007-06-09,-5.63, 5.62, 4.52, 2.08, 2.19, 9.22, repro,
2007-06-10,-0.70, 8.46, 10.69, 1.93, 1.81, 8.20, repro,
2007-06-11,-4.22, 4.58, 11.73, 1.90, 1.76, 8.22, repro,
2007-06-12,-4.69, 3.46, 7.14, 1.98, 1.82, 8.66, repro,
2007-06-13,-2.29, 4.32, 13.43, 1.93, 1.85, 8.39, repro,
2007-06-14,-2.62, 4.59, 7.18, 2.13, 2.27, 10.03, repro,
2007-06-15,-3.39, 4.92, 6.80, 1.96, 1.90, 8.55, repro,
2007-06-16,-0.53, 3.95, 5.14, 1.97, 1.92, 8.56, repro,
2007-06-17,-4.18, 2.66, 7.19, 1.97, 1.90, 8.42, repro,
2007-06-18,-4.99, 3.79, 3.72, 2.17, 2.14, 9.55, repro,
2007-06-19,-5.82, 1.04, 13.73, 1.97, 1.85, 8.52, repro,
2007-06-20,-2.70, 2.85, 10.11, 1.88, 1.74, 8.10, repro,
2007-06-21,-2.84, 3.18, 7.73, 1.87, 1.78, 8.00, repro,
2007-06-22,-2.37, 6.98, 4.65, 1.90, 1.80, 8.30, repro,
2007-06-23,-3.91, 4.77, 0.17, 2.07, 1.95, 8.98, repro,
2007-06-24,-2.24, 4.56, -3.39, 2.03, 1.90, 8.56, repro,
2007-06-25,-5.99, 4.38, 9.71, 2.02, 1.88, 8.48, repro,
2007-06-26,-3.09, 4.98, 10.24, 1.88, 1.78, 8.08, repro,
2007-06-27,-2.87, 2.94, 14.51, 1.95, 1.79, 8.59, repro,
2007-06-28,-5.28, 3.97, 7.50, 1.83, 1.75, 7.89, repro,
2007-06-29,-4.58, 3.24, 3.91, 1.86, 1.78, 7.98, repro,
2007-06-30,-3.65, 5.43, 15.61, 2.06, 1.92, 8.84, repro,
2007-07-01,-4.61, 4.19, 6.96, 2.12, 2.02, 9.12, repro,
2007-07-02,-3.86, 5.40, 22.65, 2.02, 2.02, 8.69, repro,
2007-07-03,-1.96, 4.72, 12.52, 2.10, 2.05, 8.98, repro,
2007-07-04,-2.80, 2.70, 18.70, 2.17, 2.15, 9.79, repro,
2007-07-05,-0.20, 3.38, 11.62, 1.85, 1.75, 7.93, repro,
2007-07-06,-2.21, 3.35, 8.90, 1.95, 1.79, 8.42, repro,
2007-07-07,-3.27, 0.85, 23.29, 2.24, 2.14, 9.86, repro,
2007-07-08,-2.09, 0.89, 26.96, 2.11, 1.96, 8.96, repro,
2007-07-09,-5.44, 4.83, 9.84, 1.92, 1.82, 8.10, repro,
2007-07-10,-3.80, 3.61, 21.41, 1.94, 1.89, 8.39, repro,
2007-07-11,-5.37, 4.33, 19.34, 2.04, 1.82, 8.60, repro,
2007-07-12,-3.09, 3.80, 19.77, 1.86, 1.74, 8.29, repro,
2007-07-13,-5.11, 3.63, 2.95, 1.91, 1.77, 8.01, repro,
2007-07-14,-5.50, 4.05, 21.35, 1.95, 1.80, 8.38, repro,
2007-07-15,0.14, 4.54, 11.16, 1.92, 1.77, 8.29, repro,
2007-07-16,-4.31, 2.60, 11.05, 1.99, 1.86, 8.42, repro,
2007-07-17,-3.28, 4.81, 10.64, 2.08, 2.03, 8.76, repro,
2007-07-18,-5.14, 4.18, 1.11, 2.01, 1.90, 8.52, repro,
2007-07-19,-2.41, 2.32, 18.89, 1.97, 1.89, 8.32, repro,
2007-07-20,-2.22, 4.22, 12.43, 1.92, 1.77, 8.30, repro,
2007-07-21,-2.59, 3.96, 10.94, 2.00, 1.81, 8.60, repro,
2007-07-22,-1.83, 2.64, 3.80, 1.86, 1.70, 7.98, repro,
2007-07-23,-6.04, 3.94, 17.65, 1.91, 1.79, 8.31, repro,
2007-07-24,-1.87, 3.87, 4.35, 2.10, 1.98, 9.02, repro,
2007-07-25,-5.06, 6.99, 16.83, 2.21, 2.07, 9.50, repro,
2007-07-26,-3.21, 4.01, 11.08, 2.11, 2.05, 9.16, repro,
2007-07-27,-3.06, 4.74, 10.27, 1.98, 1.88, 8.39, repro,
2007-07-28,-4.66, 4.14, 16.22, 2.05, 1.93, 8.91, repro,
2007-07-29,-2.22, 3.86, 19.65, 1.89, 1.73, 8.12, repro,
2007-07-30,-4.85, 6.09, 12.93, 2.06, 1.81, 8.65, repro,
2007-07-31,0.07, 3.62, 21.04, 2.50, 2.11, 10.25, repro,
2007-08-01,-0.84, 1.26, 21.31, 2.16, 2.16, 9.54, repro,
2007-08-02,-3.22, 4.29, 16.38, 1.93, 1.83, 8.34, repro,
2007-08-03,-3.83, 3.57, 12.85, 1.99, 1.89, 8.49, repro,
2007-08-04,-4.09, 3.91, 5.72, 1.95, 1.87, 8.27, repro,
2007-08-05,-3.57, 2.27, 19.58, 1.91, 1.81, 8.20, repro,
2007-08-06,-3.85, 4.85, 23.56, 1.87, 1.79, 7.96, repro,
2007-08-07,-4.59, 4.54, 15.45, 2.20, 1.86, 9.01, repro,
2007-08-08,-5.19, 3.58, 22.20, 1.95, 1.86, 8.31, repro,
2007-08-09,-3.59, 4.92, 15.41, 2.02, 1.91, 8.72, repro,
2007-08-10,-4.10, 4.03, 9.44, 2.02, 1.97, 8.55, repro,
2007-08-11,-2.26, 3.13, 4.10, 1.97, 1.87, 8.55, repro,
2007-08-12,-5.52, 2.46, 15.89, 2.53, 2.13, 10.59, repro,
2007-08-13,-2.82, 6.96, 18.59, 2.03, 1.87, 8.61, repro,
2007-08-14,-4.34, 5.26, 16.28, 2.65, 2.07, 10.79, repro,
2007-08-15,-4.85, 4.42, 12.04, 2.00, 1.82, 8.54, repro,
2007-08-16,-5.48, 3.46, 17.81, 1.96, 1.83, 8.16, repro,
2007-08-17,-7.92, 4.24, 13.89, 1.97, 1.87, 8.12, repro,
2007-08-18,-5.98, 4.49, 16.53, 2.74, 2.66, 11.29, repro,
2007-08-19,-4.10, 6.88, 16.29, 2.01, 1.90, 8.46, repro,
2007-08-20,-5.75, 5.76, 25.34, 2.07, 1.97, 8.82, repro,
2007-08-21,-5.19, 6.24, 13.26, 1.91, 1.79, 8.01, repro,
2007-08-22,-4.97, 4.21, 14.44, 1.88, 1.77, 7.85, repro,
2007-08-23,-4.66, 6.47, 15.38, 1.85, 1.76, 7.77, repro,
2007-08-24,-5.87, 4.24, 13.35, 2.08, 1.85, 8.83, repro,
2007-08-25,-7.22, 6.90, 12.74, 2.01, 1.83, 8.66, repro,
2007-08-26,-7.19, 3.65, 22.43, 1.99, 1.86, 8.40, repro,
2007-08-27,-4.59, 3.49, 13.94, 1.94, 1.80, 8.34, repro,
2007-08-28,-2.15, 6.74, 16.82, 1.97, 1.81, 8.48, repro,
2007-08-29,-7.05, 3.58, 14.58, 2.00, 1.82, 8.59, repro,
2007-08-30,-6.48, 5.22, 24.21, 2.28, 2.01, 9.58, repro,
2007-08-31,-3.07, 5.24, 19.74, 1.88, 1.72, 8.06, repro,
2007-09-01,-3.26, 4.30, 17.55, 2.16, 1.97, 8.91, repro,
2007-09-02,-0.64, 3.34, 20.52, 2.01, 1.89, 8.61, repro,
2007-09-03,-3.81, 3.76, 26.85, 2.21, 2.07, 9.64, repro,
2007-09-04,-2.85, 5.98, 17.49, 1.93, 1.78, 8.24, repro,
2007-09-05,-3.63, 4.04, 25.83, 1.91, 1.76, 8.13, repro,
2007-09-06,-3.69, 4.19, 22.86, 1.97, 1.81, 8.38, repro,
2007-09-07,-6.90, 4.52, 17.47, 1.93, 1.78, 8.38, repro,
2007-09-08,-3.34, 6.96, 1.23, 1.97, 1.81, 8.24, repro,
2007-09-09,-5.64, 8.45, 5.49, 1.93, 1.82, 8.23, repro,
2007-09-10,-6.46, 4.05, 12.06, 2.70, 2.75, 10.73, repro,
2007-09-11,-4.59, 2.20, 25.88, 2.08, 1.86, 8.90, repro,
2007-09-12,-2.06, 4.68, 23.68, 2.00, 1.82, 8.46, repro,
2007-09-13,-0.85, 3.26, 23.11, 2.11, 1.88, 8.85, repro,
2007-09-14,-2.93, 6.84, 30.41, 2.01, 1.83, 8.67, repro,
2007-09-15,-4.10, 5.45, 19.70, 2.02, 1.88, 8.41, repro,
2007-09-16,-5.61, 6.19, 21.57, 2.00, 1.79, 8.28, repro,
2007-09-17,-5.02, 5.34, 19.64, 1.96, 1.80, 8.33, repro,
2007-09-18,-3.71, 4.72, 8.22, 1.92, 1.79, 8.14, repro,
2007-09-19,-4.57, 5.56, 8.24, 1.83, 1.72, 7.71, repro,
2007-09-20,-4.32, 4.76, 16.55, 2.12, 1.86, 8.78, repro,
2007-09-21,-5.07, 8.03, 14.42, 1.95, 1.84, 8.30, repro,
2007-09-23,-1.54, 2.18, 6.62, 1.97, 1.88, 8.34, repro,
2007-09-24,-3.52, 3.24, 10.83, 1.94, 1.79, 8.19, repro,
2007-09-25,-3.67, 4.25, 6.11, 1.83, 1.74, 7.76, repro,
2007-09-26,-4.37, 4.99, 20.25, 1.88, 1.76, 7.86, repro,
2007-09-27,-7.12, 8.57, 9.76, 2.91, 2.47, 12.07, repro,
2007-09-28,-3.24, 7.29, 12.63, 5.46, 6.43, 21.56, repro,
2007-09-30,-3.85, 6.04, 14.16, 2.01, 1.82, 8.31, repro,
2007-10-01,-5.45, 4.07, 16.07, 3.47, 3.99, 15.62, repro,
2007-10-02,-2.76, 4.31, 11.40, 1.91, 1.85, 7.99, repro,
2007-10-03,-2.81, 4.64, 10.91, 1.95, 1.87, 8.06, repro,
2007-10-04,-5.31, 3.38, 6.52, 1.88, 1.75, 7.99, repro,
2007-10-05,-4.94, 6.40, 16.29, 2.02, 1.89, 8.27, repro,
2007-10-06,-4.87, 5.56, 23.67, 1.91, 1.80, 7.98, repro,
2007-10-07,-5.31, 5.65, 0.18, 1.90, 1.78, 7.88, repro,
2007-10-08,-4.29, 4.45, 6.38, 2.04, 1.92, 8.29, repro,
2007-10-09,-5.60, 3.27, 2.65, 2.17, 1.92, 9.11, repro,
2007-10-10,-4.76, 3.70, 6.22, 2.05, 1.95, 8.74, repro,
2007-10-11,-4.61, 4.08, 13.58, 1.95, 1.81, 8.23, repro,
2007-10-12,-2.35, 4.08, 13.59, 1.97, 1.80, 8.21, repro,
2007-10-13,-3.32, 3.43, 10.29, 1.81, 1.71, 7.60, repro,
2007-10-14,-4.31, 2.31, 11.83, 1.82, 1.73, 7.73, repro,
2007-10-15,-2.86, 2.89, 4.37, 1.81, 1.73, 7.70, repro,
2007-10-16,-6.25, 3.75, 9.49, 1.82, 1.76, 7.95, repro,
2007-10-17,-3.50, 2.65, 4.43, 1.85, 1.75, 7.83, repro,
2007-10-18,-2.30, 1.88, 8.93, 2.00, 1.93, 8.69, repro,
2007-10-19,-0.68, 4.27, 22.49, 1.87, 1.77, 8.04, repro,
2007-10-20,-3.72, 4.17, 15.14, 1.83, 1.77, 7.67, repro,
2007-10-21,-3.49, 3.95, 9.92, 1.87, 1.77, 7.88, repro,
2007-10-22,-2.00, 4.04, 16.81, 1.82, 1.72, 7.85, repro,
2007-10-23,-3.46, 2.51, 1.70, 1.98, 1.98, 8.42, repro,
2007-10-24,-1.57, 1.35, 0.81, 1.91, 1.84, 7.85, repro,
2007-10-25,-2.66, 1.95, 5.94, 1.81, 1.72, 7.69, repro,
2007-10-26,-1.28, 1.45, 8.40, 1.86, 1.72, 7.96, repro,
2007-10-27,-2.08, 2.86, 6.43, 1.84, 1.78, 7.80, repro,
2007-10-28,-1.88, 2.78, -0.55, 1.80, 1.70, 7.63, repro,
2007-10-29,-1.46, 1.91, 3.19, 1.81, 1.70, 7.62, repro,
2007-10-30,-1.95, 2.05, 2.16, 1.81, 1.71, 7.65, repro,
2007-10-31,-1.17, 3.85, 4.05, 1.81, 1.71, 7.65, repro,
2007-11-01,-3.34, 3.29, 3.83, 1.76, 1.69, 7.59, repro,
2007-11-02,-3.09, 1.92, 7.28, 1.75, 1.68, 7.53, repro,
2007-11-03,-1.89, 3.09, 0.34, 1.77, 1.69, 7.56, repro,
2007-11-04,-1.91, 2.22, 7.72, 1.75, 1.68, 7.49, repro,
2007-11-05,-2.82, 2.71, 1.46, 1.79, 1.71, 7.61, repro,
2007-11-06,-3.27, 2.29, 4.94, 1.82, 1.71, 7.91, repro,
2007-11-07,-1.08, 2.99, -0.83, 1.78, 1.73, 7.68, repro,
2007-11-08,-1.75, 1.83, 1.96, 1.80, 1.72, 7.58, repro,
2007-11-09,-2.00, 0.96, 6.78, 1.82, 1.74, 7.62, repro,
2007-11-10,-2.60, 1.35, 9.59, 1.82, 1.76, 7.81, repro,
2007-11-11,-1.32, 2.00, 8.21, 1.77, 1.69, 7.57, repro,
2007-11-12,-2.43, 1.97, 4.53, 1.80, 1.74, 7.74, repro,
2007-11-13,-2.41, 1.26, 5.69, 1.75, 1.70, 7.53, repro,
2007-11-14,-0.73, 2.42, 12.44, 1.79, 1.73, 7.68, repro,
2007-11-15,-1.21, 2.00, 16.10, 1.83, 1.78, 7.93, repro,
2007-11-16,-2.06, 2.69, 12.33, 1.77, 1.70, 7.60, repro,
2007-11-17,-0.54, 1.69, 7.16, 1.77, 1.70, 7.61, repro,
2007-11-18,-2.17, 1.54, 12.73, 1.75, 1.69, 7.53, repro,
2007-11-19,-1.75, 1.52, 14.29, 1.76, 1.69, 7.54, repro,
2007-11-20,-1.74, 2.93, 6.69, 1.79, 1.75, 7.75, repro,
2007-11-21,-1.10, 3.63, 10.22, 1.82, 1.77, 7.89, repro,
2007-11-22,-3.20, 4.35, 6.99, 1.83, 1.77, 7.91, repro,
2007-11-23,-1.88, 3.03, 6.77, 1.93, 1.79, 8.43, repro,
2007-11-24,-2.56, 1.54, 13.54, 1.85, 1.77, 7.99, repro,
2007-11-25,-2.22, 0.66, 10.14, 1.82, 1.76, 7.81, repro,
2007-11-26,-1.80, 1.35, 17.04, 1.85, 1.80, 8.09, repro,
2007-11-27,-1.27, 1.04, 6.25, 1.89, 1.78, 8.19, repro,
2007-11-28,-2.17, 1.55, 5.26, 1.80, 1.76, 7.76, repro,
2007-11-29,-1.36, 3.28, 16.65, 1.84, 1.81, 7.93, repro,
2007-11-30,-1.24, 1.81, 5.87, 1.82, 1.80, 7.83, repro,
2007-12-01,-1.22, 3.03, 8.12, 1.84, 1.78, 8.02, repro,
2007-12-02,-3.32, 4.25, 2.77, 1.80, 1.75, 7.76, repro,
2007-12-03,0.13, 2.53, -4.16, 1.80, 1.77, 7.89, repro,
2007-12-04,-1.95, 2.50, 10.25, 1.84, 1.77, 8.00, repro,
2007-12-05,-1.92, 2.10, 16.95, 1.84, 1.76, 7.95, repro,
2007-12-06,-1.36, 1.36, 12.00, 1.80, 1.75, 7.80, repro,
2007-12-07,-3.02, 2.60, 15.40, 1.84, 1.78, 8.04, repro,
2007-12-08,-1.09, 5.07, 0.39, 1.80, 1.76, 7.83, repro,
2007-12-09,-2.03, 1.63, -1.61, 1.80, 1.76, 7.84, repro,
2007-12-10,-1.91, 3.20, 2.33, 1.79, 1.75, 7.72, repro,
2007-12-11,-2.42, 2.44, 7.18, 1.79, 1.74, 7.71, repro,
2007-12-12,-1.83, 2.82, 1.46, 1.83, 1.78, 7.85, repro,
2007-12-13,-2.15, 4.11, 5.05, 1.85, 1.80, 7.98, repro,
2007-12-14,-3.28, 2.58, 7.39, 1.80, 1.76, 7.79, repro,
2007-12-15,-2.76, 1.11, 10.43, 2.06, 2.23, 9.02, repro,
2007-12-16,-2.54, 2.13, 3.35, 1.84, 1.78, 7.81, repro,
2007-12-17,-0.74, 1.58, 7.40, 1.82, 1.76, 7.76, repro,
2007-12-18,-1.03, 1.43, -1.51, 1.79, 1.74, 7.69, repro,
2007-12-19,-0.91, 2.71, 15.38, 1.82, 1.79, 7.87, repro,
2007-12-20,-1.39, 1.37, 17.42, 1.84, 1.79, 7.93, repro,
2007-12-21,-1.37, 1.82, 12.16, 1.81, 1.73, 7.65, repro,
2007-12-22,-1.06, 2.05, 11.59, 1.81, 1.72, 7.66, repro,
2007-12-23,-0.68, 2.98, 8.48, 1.83, 1.75, 7.81, repro,
2007-12-24,-0.45, 0.82, 7.50, 1.83, 1.77, 7.85, repro,
2007-12-25,-2.42, 1.10, 18.28, 1.84, 1.79, 7.96, repro,
2007-12-26,-1.15, 1.10, 11.90, 1.80, 1.72, 7.67, repro,
2007-12-27,-1.36, 1.65, 5.78, 1.85, 1.81, 7.82, repro,
2007-12-28,-0.83, 2.12, 9.59, 1.92, 1.94, 8.12, repro,
2007-12-29,-3.03, 2.59, 12.04, 1.83, 1.81, 7.84, repro,
2007-12-30,-0.33, 1.55, 25.33, 1.86, 1.84, 8.06, repro,
2007-12-31,-0.21, 0.34, 13.66, 1.79, 1.74, 7.69, repro,
2008-01-01,0.15, 0.58, -1.52, 1.80, 1.73, 7.70, repro,
2008-01-02,-0.63, -0.41, -5.47, 1.78, 1.71, 7.54, repro,
2008-01-03,1.83, -0.62, -7.78, 1.82, 1.73, 7.64, repro,
2008-01-04,0.21, 0.05, -4.94, 1.75, 1.71, 7.39, repro,
2008-01-05,0.12, -1.00, 1.22, 1.75, 1.72, 7.45, repro,
2008-01-06,1.54, 1.18, 2.22, 1.76, 1.73, 7.48, repro,
2008-01-07,-0.21, 1.59, 5.06, 1.76, 1.71, 7.44, repro,
2008-01-08,-0.10, 1.08, 1.73, 1.79, 1.75, 7.50, repro,
2008-01-09,-0.21, -0.29, 8.76, 1.79, 1.77, 7.55, repro,
2008-01-10,-1.08, 2.26, 14.97, 1.77, 1.74, 7.60, repro,
2008-01-11,-1.02, 0.56, 15.37, 1.82, 1.78, 7.88, repro,
2008-01-12,-0.78, 0.76, -0.02, 1.84, 1.87, 8.09, repro,
2008-01-13,-0.58, 0.23, 2.24, 1.76, 1.72, 7.56, repro,
2008-01-14,-0.37, 0.35, -1.23, 1.78, 1.75, 7.76, repro,
2008-01-15,-0.26, 0.46, 0.97, 1.77, 1.76, 7.72, repro,
2008-01-16,-0.84, 0.43, 9.54, 1.81, 1.79, 7.99, repro,
2008-01-17,-0.39, -0.08, 3.45, 1.84, 1.82, 8.17, repro,
2008-01-18,-0.24, 0.19, 8.91, 1.81, 1.74, 7.87, repro,
2008-01-19,-1.00, -0.14, 0.40, 1.81, 1.79, 7.99, repro,
2008-01-20,0.70, -1.16, -12.44, 1.77, 1.75, 7.77, repro,
2008-01-21,0.93, -0.79, -9.36, 1.78, 1.78, 7.91, repro,
2008-01-22,-0.16, 0.17, -16.46, 1.80, 1.79, 7.96, repro,
2008-01-23,0.36, 0.70, -5.12, 1.78, 1.74, 7.73, repro,
2008-01-24,1.11, -0.26, -10.86, 1.79, 1.74, 7.77, repro,
2008-01-25,0.14, -0.95, -6.34, 1.82, 1.83, 8.04, repro,
2008-01-26,1.01, 0.27, 16.30, 1.80, 1.79, 8.02, repro,
2008-01-27,0.38, -1.68, 3.90, 1.78, 1.78, 7.88, repro,
2008-01-28,0.43, -0.06, -2.70, 1.79, 1.78, 7.95, repro,
2008-01-29,0.13, -0.36, 5.07, 1.95, 1.91, 8.77, repro,
2008-01-30,-0.83, 0.80, 6.38, 1.92, 1.84, 8.41, repro,
2008-01-31,-2.07, -0.48, 10.86, 1.86, 1.93, 8.40, repro,
2008-02-01,-0.04, -0.46, 1.11, 1.80, 1.82, 8.01, repro,
2008-02-02,0.44, 0.52, -3.33, 1.79, 1.79, 7.91, repro,
2008-02-03,-0.05, 0.45, -4.30, 1.79, 1.74, 7.77, repro,
2008-02-04,-0.55, 0.62, 2.81, 1.75, 1.70, 7.54, repro,
2008-02-05,0.39, -0.07, 12.04, 1.85, 1.76, 8.10, repro,
2008-02-06,-3.44, 3.28, 8.35, 1.87, 1.79, 8.20, repro,
2008-02-07,-0.18, 0.38, 4.93, 1.82, 1.76, 7.76, repro,
2008-02-08,-0.80, -0.39, 0.75, 1.77, 1.73, 7.67, repro,
2008-02-09,0.26, 1.40, 0.77, 1.76, 1.69, 7.50, repro,
2008-02-10,-0.62, 0.20, -7.25, 1.75, 1.68, 7.44, repro,
2008-02-11,-0.42, -0.33, -3.08, 1.76, 1.68, 7.45, repro,
2008-02-12,-2.69, -1.03, 2.03, 1.77, 1.68, 7.46, repro,
2008-02-13,-0.29, 1.23, 11.73, 1.76, 1.69, 7.44, repro,
2008-02-14,-0.51, -1.63, 0.31, 1.76, 1.68, 7.43, repro,
2008-02-15,-0.18, -0.68, -1.95, 1.81, 1.70, 7.69, repro,
2008-02-16,-0.26, -0.50, 2.20, 1.76, 1.69, 7.46, repro,
2008-02-17,-2.05, -1.72, 6.42, 1.80, 1.74, 7.73, repro,
2008-02-18,-1.71, -0.93, 5.67, 1.76, 1.68, 7.43, repro,
2008-02-19,-1.01, 0.81, -1.50, 1.76, 1.69, 7.47, repro,
2008-02-20,-0.70, -0.89, -4.98, 1.76, 1.69, 7.51, repro,
2008-02-21,-2.47, 1.01, -4.21, 1.79, 1.72, 7.64, repro,
2008-02-22,-2.75, -1.11, 15.75, 1.84, 1.76, 7.90, repro,
2008-02-23,0.76, -0.65, 3.57, 2.40, 2.22, 10.02, repro,
2008-02-24,-0.78, 0.47, -2.67, 1.78, 1.70, 7.60, repro,
2008-02-25,-0.07, 1.04, 3.00, 1.78, 1.70, 7.61, repro,
2008-02-26,-2.25, 2.14, 3.59, 1.81, 1.79, 7.92, repro,
2008-02-27,0.34, 0.51, -3.86, 1.71, 1.68, 7.36, repro,
2008-02-28,-0.83, 0.41, -1.50, 1.79, 1.77, 7.59, repro,
2008-02-29,-0.61, -0.15, -1.14, 1.73, 1.68, 7.36, repro,
2008-03-01,-0.28, 0.83, -7.00, 1.76, 1.71, 7.56, repro,
2008-03-02,1.02, 0.60, -3.82, 1.79, 1.76, 7.67, repro,
2008-03-03,-1.02, 1.37, 2.09, 1.72, 1.69, 7.39, repro,
2008-03-04,-1.51, 1.11, 11.18, 1.85, 1.79, 7.86, repro,
2008-03-05,-1.61, 0.13, -4.83, 1.87, 1.84, 8.07, repro,
2008-03-06,0.46, 0.10, -1.60, 1.78, 1.78, 7.61, repro,
2008-03-07,0.45, -0.94, 9.10, 1.82, 1.76, 7.77, repro,
2008-03-08,-0.93, -0.52, 4.60, 1.94, 1.86, 8.31, repro,
2008-03-09,0.75, -0.35, -2.33, 1.73, 1.71, 7.44, repro,
2008-03-10,-0.77, 1.05, -0.22, 1.72, 1.68, 7.36, repro,
2008-03-11,0.14, 1.09, 1.03, 1.76, 1.72, 7.57, repro,
2008-03-12,-0.35, 2.72, 5.42, 1.79, 1.76, 7.69, repro,
2008-03-13,0.08, 1.71, 2.29, 1.81, 1.76, 7.65, repro,
2008-03-14,-1.12, 1.22, 14.37, 1.83, 1.83, 8.02, repro,
2008-03-15,-1.26, 0.99, 9.24, 1.77, 1.76, 7.60, repro,
2008-03-16,-1.19, 1.69, 5.13, 1.77, 1.75, 7.62, repro,
2008-03-17,0.12, 0.83, -1.92, 1.93, 1.92, 8.06, repro,
2008-03-18,-1.61, 2.33, -5.51, 1.81, 1.82, 7.82, repro,
2008-03-19,-3.19, -0.78, 12.14, 1.78, 1.78, 7.66, repro,
2008-03-20,-1.64, -0.09, 0.11, 1.74, 1.72, 7.32, repro,
2008-03-21,-0.60, 2.01, -1.73, 1.77, 1.74, 7.41, repro,
2008-03-22,-0.64, 1.14, 5.52, 1.78, 1.75, 7.48, repro,
2008-03-23,-0.18, 1.25, -2.88, 1.78, 1.75, 7.48, repro,
2008-03-24,-0.29, 2.33, -6.52, 1.78, 1.78, 7.56, repro,
2008-03-25,0.47, 0.06, -2.57, 1.80, 1.76, 7.65, repro,
2008-03-26,-0.82, 0.68, -4.13, 1.78, 1.71, 7.49, repro,
2008-03-27,0.18, 1.64, 1.39, 1.81, 1.78, 7.77, repro,
2008-03-28,-1.17, 2.22, 12.27, 1.81, 1.74, 7.66, repro,
2008-03-29,-1.27, 2.58, -4.64, 1.74, 1.70, 7.28, repro,
2008-03-30,-1.08, 2.12, 5.64, 1.72, 1.69, 7.20, repro,
2008-03-31,-1.39, 3.01, 8.25, 1.72, 1.69, 7.18, repro,
2008-04-01,-0.73, 0.72, 7.08, 1.72, 1.71, 7.22, repro,
2008-04-02,0.51, 1.01, 5.13, 1.78, 1.76, 7.50, repro,
2008-04-03,0.18, 2.30, 2.66, 1.74, 1.69, 7.24, repro,
2008-04-04,-1.60, 2.90, -2.95, 1.76, 1.75, 7.38, repro,
2008-04-05,-3.38, 5.50, 24.34, 1.85, 1.77, 7.78, repro,
2008-04-06,-1.69, 2.14, 1.21, 1.74, 1.70, 7.25, repro,
2008-04-07,-0.20, 3.02, 0.80, 1.72, 1.70, 7.23, repro,
2008-04-08,-0.18, 2.03, 6.53, 1.72, 1.69, 7.24, repro,
2008-04-09,-0.25, 1.86, 4.28, 1.73, 1.67, 7.15, repro,